Time,TemperatureF,DewpointF,PressureIn,WindDirection,WindDirectionDegrees,WindSpeedMPH,WindSpeedGustMPH,Humidity,HourlyPrecipIn,Conditions,Clouds,dailyrainin,SoftwareType,DateUTC
2013-05-29 00:02:00,78.0,73.0,32.10,East,80,21.0,23.0,85,0.00,,,-99.99,,2013-05-29 04:02:00,
2013-05-29 00:13:00,78.0,73.0,32.10,ENE,77,16.0,21.0,86,0.01,,,-99.99,,2013-05-29 04:13:00,
2013-05-29 00:23:00,78.0,73.0,32.10,ENE,77,16.0,21.0,86,0.01,,,-99.99,,2013-05-29 04:23:00,
2013-05-29 00:33:00,78.0,73.0,31.76,East,80,17.0,23.0,86,0.01,,,-99.99,,2013-05-29 04:33:00,
2013-05-29 00:42:00,78.0,73.0,31.76,East,80,17.0,23.0,86,0.01,,,-99.99,,2013-05-29 04:42:00,
2013-05-29 00:53:00,78.0,73.0,31.76,East,96,21.0,26.0,86,0.01,,,-99.99,,2013-05-29 04:53:00,
2013-05-29 01:02:00,78.0,73.0,31.76,East,86,21.0,24.0,86,0.01,,,-99.99,,2013-05-29 05:02:00,
2013-05-29 01:12:00,78.0,73.0,31.76,East,86,21.0,24.0,86,0.01,,,-99.99,,2013-05-29 05:12:00,
2013-05-29 01:22:00,77.0,72.0,31.76,East,92,22.0,26.0,85,0.00,,,-99.99,,2013-05-29 05:22:00,
2013-05-29 01:32:00,77.0,72.0,31.76,East,89,21.0,24.0,85,0.00,,,-99.99,,2013-05-29 05:32:00,
2013-05-29 01:42:00,77.0,72.0,31.76,East,89,21.0,24.0,85,0.00,,,-99.99,,2013-05-29 05:42:00,
2013-05-29 01:52:00,77.0,71.0,31.76,East,79,20.0,24.0,83,0.00,,,-99.99,,2013-05-29 05:52:00,
2013-05-29 02:02:00,78.0,73.0,31.76,ENE,71,22.0,25.0,84,0.00,,,-99.99,,2013-05-29 06:02:00,
2013-05-29 02:12:00,78.0,73.0,31.76,ENE,71,22.0,25.0,84,0.00,,,-99.99,,2013-05-29 06:12:00,
2013-05-29 02:21:00,78.0,73.0,31.76,ENE,77,22.0,27.0,85,0.00,,,-99.99,,2013-05-29 06:21:00,
2013-05-29 02:32:00,78.0,73.0,31.76,ENE,77,22.0,24.0,85,0.00,,,-99.99,,2013-05-29 06:32:00,
2013-05-29 02:42:00,78.0,73.0,31.76,ENE,77,22.0,24.0,85,0.00,,,-99.99,,2013-05-29 06:42:00,
2013-05-29 02:52:00,78.0,73.0,31.76,East,86,19.0,25.0,86,0.00,,,-99.99,,2013-05-29 06:52:00,
2013-05-29 03:01:00,78.0,73.0,31.76,East,91,20.0,24.0,86,0.01,,,-99.99,,2013-05-29 07:01:00,
2013-05-29 03:11:00,78.0,73.0,31.76,East,91,20.0,24.0,86,0.01,,,-99.99,,2013-05-29 07:11:00,
2013-05-29 03:21:00,78.0,74.0,23.65,East,87,19.0,24.0,87,0.01,,,-99.99,,2013-05-29 07:21:00,
2013-05-29 03:34:00,78.0,73.0,23.65,ENE,77,18.0,24.0,86,0.01,,,-99.99,,2013-05-29 07:34:00,
2013-05-29 03:42:00,78.0,73.0,23.65,ENE,77,18.0,24.0,86,0.01,,,-99.99,,2013-05-29 07:42:00,
2013-05-29 03:52:00,78.0,73.0,23.64,East,80,18.0,23.0,86,0.01,,,-99.99,,2013-05-29 07:52:00,
2013-05-29 04:02:00,78.0,73.0,23.64,ENE,75,19.0,22.0,86,0.00,,,-99.99,,2013-05-29 08:02:00,
2013-05-29 04:11:00,78.0,73.0,23.64,ENE,75,19.0,22.0,86,0.00,,,-99.99,,2013-05-29 08:11:00,
2013-05-29 04:22:00,78.0,73.0,23.64,ENE,73,15.0,22.0,86,0.00,,,-99.99,,2013-05-29 08:22:00,
2013-05-29 04:32:00,78.0,74.0,23.64,East,80,16.0,19.0,87,0.00,,,-99.99,,2013-05-29 08:32:00,
2013-05-29 04:42:00,78.0,74.0,23.64,East,80,16.0,19.0,87,0.00,,,-99.99,,2013-05-29 08:42:00,
2013-05-29 04:52:00,78.0,74.0,23.64,NE,56,13.0,21.0,87,0.00,,,-99.99,,2013-05-29 08:52:00,
2013-05-29 05:01:00,77.0,73.0,23.64,NE,54,13.0,18.0,87,0.00,,,-99.99,,2013-05-29 09:01:00,
2013-05-29 05:11:00,77.0,73.0,23.64,NE,54,13.0,18.0,87,0.00,,,-99.99,,2013-05-29 09:11:00,
2013-05-29 05:21:00,77.0,73.0,23.64,NE,49,13.0,17.0,88,0.00,,,-99.99,,2013-05-29 09:21:00,
2013-05-29 05:33:00,77.0,74.0,31.16,ENE,64,12.0,18.0,89,0.00,,,-99.99,,2013-05-29 09:33:00,
2013-05-29 05:42:00,77.0,74.0,31.16,ENE,64,12.0,18.0,89,0.00,,,-99.99,,2013-05-29 09:42:00,
2013-05-29 05:52:00,77.0,74.0,31.06,ENE,59,17.0,21.0,89,0.01,,,-99.99,,2013-05-29 09:52:00,
2013-05-29 06:03:00,77.0,74.0,31.06,NE,46,14.0,21.0,89,0.01,,,-99.99,,2013-05-29 10:03:00,
2013-05-29 06:12:00,77.0,74.0,31.06,NE,46,14.0,21.0,89,0.01,,,-99.99,,2013-05-29 10:12:00,
2013-05-29 06:22:00,76.0,73.0,31.06,SE,140,25.0,32.0,90,0.01,,,-99.99,,2013-05-29 10:22:00,
2013-05-29 06:33:00,75.0,72.0,26.41,SE,138,24.0,30.0,91,0.01,,,-99.99,,2013-05-29 10:33:00,
2013-05-29 06:42:00,75.0,72.0,26.41,SE,138,24.0,30.0,91,0.01,,,-99.99,,2013-05-29 10:42:00,
2013-05-29 06:53:00,75.0,73.0,26.41,SE,124,27.0,31.0,93,0.00,,,-99.99,,2013-05-29 10:53:00,
2013-05-29 07:02:00,75.0,73.0,26.41,SE,136,30.0,33.0,94,0.00,,,-99.99,,2013-05-29 11:02:00,
2013-05-29 07:12:00,75.0,73.0,26.41,SE,136,30.0,33.0,94,0.00,,,-99.99,,2013-05-29 11:12:00,
2013-05-29 07:22:00,74.0,72.0,32.25,ESE,123,22.0,29.0,95,0.00,,,-99.99,,2013-05-29 11:22:00,
2013-05-29 07:32:00,74.0,72.0,32.25,SE,129,22.0,27.0,95,0.01,,,-99.99,,2013-05-29 11:32:00,
2013-05-29 07:42:00,74.0,72.0,32.25,SE,129,22.0,27.0,95,0.01,,,-99.99,,2013-05-29 11:42:00,
2013-05-29 07:52:00,74.0,72.0,26.42,SE,138,20.0,25.0,95,0.01,,,-99.99,,2013-05-29 11:52:00,
2013-05-29 08:01:00,74.0,73.0,30.01,ESE,123,16.0,21.0,96,0.01,,,-99.99,,2013-05-29 12:01:00,
2013-05-29 08:11:00,74.0,73.0,30.01,ESE,123,16.0,21.0,96,0.01,,,-99.99,,2013-05-29 12:11:00,
2013-05-29 08:22:00,73.0,72.0,30.00,ESE,110,9.0,14.0,96,0.02,,,0.22,,2013-05-29 12:22:00,
2013-05-29 08:32:00,74.0,73.0,30.00,SE,132,10.0,13.0,96,0.01,,,0.22,,2013-05-29 12:32:00,
2013-05-29 08:42:00,74.0,73.0,30.00,SE,132,10.0,13.0,96,0.01,,,0.22,,2013-05-29 12:42:00,
2013-05-29 08:52:00,74.0,73.0,26.41,ESE,115,11.0,15.0,96,0.01,,,0.22,,2013-05-29 12:52:00,
2013-05-29 09:02:00,74.0,73.0,26.44,ESE,115,11.0,14.0,96,0.01,,,0.22,,2013-05-29 13:02:00,
2013-05-29 09:11:00,74.0,73.0,26.44,ESE,115,11.0,14.0,96,0.01,,,0.22,,2013-05-29 13:11:00,
2013-05-29 09:22:00,73.0,72.0,26.44,East,79,6.0,10.0,96,0.00,,,0.21,,2013-05-29 13:22:00,
2013-05-29 09:32:00,74.0,73.0,26.44,East,100,11.0,12.0,97,0.00,,,0.21,,2013-05-29 13:32:00,
2013-05-29 09:42:00,74.0,73.0,26.44,East,100,11.0,12.0,97,0.00,,,0.21,,2013-05-29 13:42:00,
2013-05-29 09:53:00,74.0,73.0,26.41,East,98,4.0,12.0,96,0.01,,,0.22,,2013-05-29 13:53:00,
2013-05-29 10:02:00,74.0,73.0,26.43,East,90,5.0,7.0,96,0.01,,,0.22,,2013-05-29 14:02:00,
2013-05-29 10:11:00,74.0,73.0,26.43,East,90,5.0,7.0,96,0.01,,,0.22,,2013-05-29 14:11:00,
2013-05-29 10:21:00,74.0,73.0,26.41,East,81,4.0,6.0,97,0.01,,,0.21,,2013-05-29 14:21:00,
2013-05-29 10:32:00,75.0,74.0,26.43,ENE,77,10.0,13.0,97,0.01,,,0.21,,2013-05-29 14:32:00,
2013-05-29 10:42:00,75.0,74.0,26.43,ENE,77,10.0,13.0,97,0.01,,,0.21,,2013-05-29 14:42:00,
2013-05-29 10:52:00,75.0,74.0,26.41,ENE,75,18.0,28.0,97,0.00,,,0.21,,2013-05-29 14:52:00,
2013-05-29 11:01:00,75.0,74.0,26.41,East,86,20.0,22.0,97,0.00,,,0.21,,2013-05-29 15:01:00,
2013-05-29 11:11:00,75.0,74.0,24.94,East,92,18.0,22.0,97,0.01,,,0.20,,2013-05-29 15:11:00,
2013-05-29 11:21:00,75.0,74.0,24.94,East,92,18.0,22.0,97,0.01,,,0.20,,2013-05-29 15:21:00,
2013-05-29 11:33:00,76.0,75.0,26.41,East,88,16.0,20.0,97,0.01,,,0.20,,2013-05-29 15:33:00,
2013-05-29 11:42:00,76.0,75.0,26.41,East,88,16.0,20.0,97,0.01,,,0.20,,2013-05-29 15:42:00,
2013-05-29 11:53:00,76.0,75.0,26.41,East,98,21.0,27.0,96,0.01,,,0.20,,2013-05-29 15:53:00,
2013-05-29 12:03:00,75.0,74.0,26.41,ENE,72,16.0,23.0,96,0.01,,,0.20,,2013-05-29 16:03:00,
2013-05-29 12:12:00,75.0,74.0,26.41,ENE,72,16.0,23.0,96,0.01,,,0.20,,2013-05-29 16:12:00,
2013-05-29 12:22:00,75.0,74.0,30.03,ENE,59,14.0,21.0,96,0.00,,,0.18,,2013-05-29 16:22:00,
2013-05-29 12:32:00,76.0,75.0,26.35,ENE,78,13.0,17.0,97,0.00,,,0.18,,2013-05-29 16:32:00,
2013-05-29 12:42:00,76.0,75.0,26.35,ENE,78,13.0,17.0,97,0.00,,,0.18,,2013-05-29 16:42:00,
2013-05-29 12:52:00,76.0,75.0,32.26,East,91,21.0,24.0,96,0.00,,,0.18,,2013-05-29 16:52:00,
2013-05-29 13:02:00,77.0,76.0,32.26,East,94,20.0,25.0,96,0.00,,,0.18,,2013-05-29 17:02:00,
2013-05-29 13:12:00,77.0,76.0,32.26,East,94,20.0,25.0,96,0.00,,,0.18,,2013-05-29 17:12:00,
2013-05-29 13:22:00,76.0,75.0,26.41,East,88,18.0,22.0,96,0.01,,,0.17,,2013-05-29 17:22:00,
2013-05-29 13:32:00,76.0,75.0,26.41,East,80,18.0,28.0,96,0.01,,,0.17,,2013-05-29 17:32:00,
2013-05-29 13:42:00,76.0,75.0,26.41,East,80,18.0,28.0,96,0.01,,,0.17,,2013-05-29 17:42:00,
2013-05-29 13:52:00,76.0,75.0,26.41,ENE,75,18.0,25.0,96,0.01,,,0.17,,2013-05-29 17:52:00,
2013-05-29 14:01:00,76.0,75.0,26.41,ENE,75,18.0,24.0,96,0.01,,,0.17,,2013-05-29 18:01:00,
2013-05-29 14:13:00,75.0,73.0,26.41,East,85,19.0,23.0,95,0.00,,,0.16,,2013-05-29 18:13:00,
2013-05-29 14:22:00,75.0,73.0,26.41,East,85,19.0,23.0,95,0.00,,,0.16,,2013-05-29 18:22:00,
2013-05-29 14:32:00,75.0,73.0,26.41,ENE,77,21.0,24.0,95,0.00,,,0.16,,2013-05-29 18:32:00,
2013-05-29 14:42:00,75.0,73.0,26.41,ENE,77,21.0,24.0,95,0.00,,,0.16,,2013-05-29 18:42:00,
2013-05-29 14:52:00,75.0,73.0,26.41,ENE,61,17.0,25.0,93,0.01,,,0.17,,2013-05-29 18:52:00,
2013-05-29 15:02:00,76.0,74.0,26.41,East,83,21.0,24.0,94,0.01,,,0.17,,2013-05-29 19:02:00,
2013-05-29 15:11:00,76.0,74.0,26.41,East,89,18.0,23.0,94,0.01,,,0.16,,2013-05-29 19:11:00,
2013-05-29 15:22:00,76.0,74.0,26.41,East,89,18.0,23.0,94,0.01,,,0.16,,2013-05-29 19:22:00,
2013-05-29 15:32:00,76.0,74.0,26.41,East,85,18.0,21.0,94,0.01,,,0.16,,2013-05-29 19:32:00,
2013-05-29 15:44:00,75.0,73.0,30.02,SSW,196,6.0,21.0,94,0.00,,,0.16,,2013-05-29 19:44:00,
2013-05-29 15:53:00,75.0,73.0,30.02,SSW,196,6.0,21.0,94,0.00,,,0.16,,2013-05-29 19:53:00,
2013-05-29 16:03:00,74.0,72.0,30.02,SW,231,10.0,14.0,94,0.00,,,0.16,,2013-05-29 20:03:00,
2013-05-29 16:11:00,74.0,72.0,30.02,SW,231,10.0,14.0,94,0.00,,,0.16,,2013-05-29 20:11:00,
2013-05-29 16:23:00,74.0,72.0,30.02,SW,227,6.0,15.0,95,0.00,,,0.15,,2013-05-29 20:23:00,
2013-05-29 16:33:00,74.0,72.0,30.02,WSW,243,2.0,9.0,95,0.00,,,0.15,,2013-05-29 20:33:00,
2013-05-29 16:42:00,74.0,72.0,30.02,WSW,243,2.0,9.0,95,0.00,,,0.15,,2013-05-29 20:42:00,
2013-05-29 16:53:00,73.0,71.0,30.02,WSW,243,0.0,0.0,95,0.00,,,0.15,,2013-05-29 20:53:00,
2013-05-29 17:02:00,74.0,72.0,30.02,NE,40,1.0,4.0,95,0.00,,,0.15,,2013-05-29 21:02:00,
2013-05-29 17:12:00,74.0,72.0,30.02,NE,40,1.0,4.0,95,0.00,,,0.15,,2013-05-29 21:12:00,
2013-05-29 17:22:00,74.0,73.0,30.02,NE,51,5.0,11.0,96,0.01,,,0.15,,2013-05-29 21:22:00,
2013-05-29 17:33:00,75.0,74.0,26.41,ENE,73,12.0,14.0,96,0.01,,,0.15,,2013-05-29 21:33:00,
2013-05-29 17:43:00,75.0,74.0,26.41,ENE,73,12.0,14.0,96,0.01,,,0.15,,2013-05-29 21:43:00,
2013-05-29 17:53:00,75.0,74.0,26.41,East,82,16.0,19.0,96,0.01,,,0.15,,2013-05-29 21:53:00,
2013-05-29 18:03:00,75.0,74.0,26.41,East,92,15.0,19.0,96,0.01,,,0.15,,2013-05-29 22:03:00,
2013-05-29 18:12:00,75.0,74.0,26.41,East,92,15.0,19.0,96,0.01,,,0.15,,2013-05-29 22:12:00,
2013-05-29 18:23:00,75.0,74.0,26.41,East,95,16.0,18.0,97,0.00,,,0.14,,2013-05-29 22:23:00,
2013-05-29 18:33:00,75.0,73.0,26.46,East,100,14.0,16.0,95,0.00,,,0.14,,2013-05-29 22:33:00,
2013-05-29 18:42:00,75.0,73.0,26.41,East,94,15.0,17.0,95,0.01,,,0.15,,2013-05-29 22:42:00,
2013-05-29 18:53:00,75.0,73.0,26.41,East,94,15.0,17.0,95,0.01,,,0.15,,2013-05-29 22:53:00,
2013-05-29 19:02:00,76.0,74.0,26.43,ESE,105,16.0,18.0,95,0.01,,,0.15,,2013-05-29 23:02:00,
2013-05-29 19:12:00,76.0,74.0,26.43,ESE,105,16.0,18.0,95,0.01,,,0.15,,2013-05-29 23:12:00,
2013-05-29 19:22:00,76.0,74.0,26.43,ESE,110,13.0,17.0,94,0.01,,,0.14,,2013-05-29 23:22:00,
2013-05-29 19:33:00,76.0,74.0,26.41,SE,129,15.0,17.0,94,0.01,,,0.14,,2013-05-29 23:33:00,
2013-05-29 19:42:00,75.0,73.0,26.41,ESE,115,18.0,20.0,94,0.00,,,0.14,,2013-05-29 23:42:00,
2013-05-29 19:53:00,75.0,73.0,26.41,ESE,115,18.0,20.0,94,0.00,,,0.14,,2013-05-29 23:53:00,
2013-05-29 20:01:00,76.0,74.0,25.87,ESE,115,17.0,27.0,94,0.00,,,0.14,,2013-05-30 00:01:00,
2013-05-29 20:11:00,76.0,74.0,25.87,ESE,115,17.0,27.0,94,0.00,,,0.14,,2013-05-30 00:11:00,
2013-05-29 20:22:00,76.0,74.0,25.87,East,101,24.0,28.0,94,0.00,,,0.13,,2013-05-30 00:22:00,
2013-05-29 20:32:00,76.0,74.0,25.87,ESE,105,20.0,25.0,94,0.00,,,0.13,,2013-05-30 00:32:00,
2013-05-29 20:42:00,76.0,74.0,25.87,ESE,105,20.0,25.0,94,0.00,,,0.13,,2013-05-30 00:42:00,
2013-05-29 20:52:00,76.0,74.0,25.87,ESE,105,18.0,21.0,94,0.00,,,0.13,,2013-05-30 00:52:00,
2013-05-29 21:01:00,76.0,74.0,26.41,ESE,110,15.0,19.0,94,0.01,,,0.14,,2013-05-30 01:01:00,
2013-05-29 21:11:00,76.0,74.0,26.41,ESE,110,15.0,19.0,94,0.01,,,0.14,,2013-05-30 01:11:00,
2013-05-29 21:22:00,75.0,74.0,26.41,ESE,115,21.0,27.0,96,0.01,,,0.13,,2013-05-30 01:22:00,
2013-05-29 21:32:00,75.0,74.0,26.41,East,97,25.0,29.0,98,0.01,,,0.13,,2013-05-30 01:32:00,
2013-05-29 21:42:00,75.0,74.0,26.41,East,97,25.0,29.0,98,0.01,,,0.13,,2013-05-30 01:42:00,
2013-05-29 21:52:00,75.0,74.0,26.41,East,92,26.0,36.0,96,0.01,,,0.13,,2013-05-30 01:52:00,
2013-05-29 22:01:00,75.0,74.0,26.41,East,92,23.0,31.0,96,0.00,,,0.13,,2013-05-30 02:01:00,
2013-05-29 22:11:00,75.0,74.0,26.41,East,92,23.0,31.0,96,0.00,,,0.13,,2013-05-30 02:11:00,
2013-05-29 22:21:00,75.0,74.0,25.57,East,83,22.0,27.0,96,0.01,,,0.14,,2013-05-30 02:21:00,
2013-05-29 22:32:00,75.0,74.0,25.57,ENE,71,32.0,39.0,96,0.01,,,0.14,,2013-05-30 02:32:00,
2013-05-29 22:42:00,75.0,74.0,25.57,ENE,71,32.0,39.0,96,0.01,,,0.14,,2013-05-30 02:42:00,
2013-05-29 22:52:00,75.0,74.0,25.57,ENE,71,32.0,39.0,96,0.01,,,0.14,,2013-05-30 02:52:00,
2013-05-29 23:02:00,74.0,73.0,25.94,ENE,57,27.0,34.0,96,0.01,,,0.14,,2013-05-30 03:02:00,
2013-05-29 23:11:00,74.0,73.0,25.94,NE,54,30.0,37.0,97,0.00,,,0.13,,2013-05-30 03:11:00,
2013-05-29 23:21:00,74.0,73.0,25.94,NE,54,30.0,37.0,97,0.00,,,0.13,,2013-05-30 03:21:00,
2013-05-29 23:33:00,74.0,73.0,25.94,ENE,57,27.0,35.0,97,0.00,,,0.13,,2013-05-30 03:33:00,
2013-05-29 23:43:00,74.0,73.0,25.94,ENE,57,27.0,35.0,97,0.00,,,0.13,,2013-05-30 03:43:00,
2013-05-29 23:53:00,75.0,74.0,25.94,NE,48,26.0,33.0,97,0.00,,,0.13,,2013-05-30 03:53:00,